Wind_Speed
45 45 45 45 45 45 45 45 45 46 46 46 47 47 47 48 48 49 49 49 50 51 52 53 54 55 55 55 56 57 57 58 58 55 54 53 53 53 54 55 55 56 56
46 46 46 46 46 46 46 46 46 47 47 47 47 47 48 48 49 50 50 51 51 52 53 54 55 55 55 56 56 56 56 56 55 54 52 52 53 53 54 55 56 56 56
47 47 46 46 46 46 46 46 46 47 47 47 48 48 48 49 49 50 51 51 51 53 53 54 54 55 56 56 55 54 54 53 54 54 52 52 53 54 54 55 55 55 56
47 46 46 46 46 46 46 47 47 47 47 47 47 48 48 49 49 50 50 51 52 52 53 54 55 55 55 54 54 52 52 52 52 52 53 53 53 53 54 54 54 54 54
46 45 45 46 46 46 46 46 46 46 47 47 47 48 48 48 49 50 50 50 51 51 52 53 54 53 53 52 51 51 51 51 51 52 53 53 53 54 54 54 53 53 53
45 45 46 46 46 46 46 46 46 46 46 46 47 47 48 49 49 50 50 50 50 52 52 52 52 51 51 51 50 50 51 51 52 53 53 53 53 53 53 53 52 52 52
44 45 45 46 46 46 46 47 46 46 46 47 48 48 49 49 49 49 50 50 51 52 51 51 50 50 50 49 50 51 51 53 54 54 54 53 52 52 52 52 52 52 52
44 44 45 45 45 46 46 46 47 47 48 48 48 49 49 49 49 49 50 50 51 51 50 50 50 50 50 50 51 52 52 53 54 54 54 52 52 52 52 52 52 52 52
43 44 44 45 45 46 46 46 46 47 48 48 48 48 48 48 48 49 50 50 50 49 50 50 50 50 50 51 51 52 52 52 52 52 52 52 53 53 52 52 51 51 50
42 43 43 44 45 45 46 46 46 47 47 48 47 47 48 48 48 49 49 49 48 49 49 49 49 49 50 50 51 51 51 51 51 51 51 52 52 51 51 51 51 51 50
42 43 44 45 45 45 46 46 47 47 47 47 47 47 47 48 48 49 48 47 47 47 48 47 47 48 48 49 50 50 50 49 48 48 49 49 49 50 50 50 51 50 49
42 43 44 45 45 46 46 46 46 46 46 46 47 47 47 47 47 46 46 45 46 46 45 46 46 46 47 48 49 48 48 48 47 47 47 48 48 48 49 49 49 48 47
42 43 44 45 46 46 45 46 46 46 46 46 46 46 46 45 44 44 44 44 43 44 44 45 45 46 47 47 47 47 47 47 47 47 47 47 47 47 47 46 46 45 45
43 43 43 44 45 45 45 45 45 45 45 45 45 44 43 42 42 42 42 42 42 43 44 44 45 45 46 46 46 46 47 47 47 46 46 46 45 45 44 43 43 43 43
42 42 42 42 43 43 43 44 44 44 44 43 42 40 40 39 40 41 41 41 42 42 43 43 44 45 45 45 45 45 45 45 45 44 44 43 43 42 42 42 42 42 41
40 40 41 41 41 41 41 41 41 41 41 41 39 38 38 39 39 40 41 42 42 42 43 43 43 43 43 44 44 43 43 42 42 41 41 40 40 40 40 41 41 39 38
39 40 40 40 40 40 39 38 38 39 39 39 38 38 38 39 40 40 41 41 41 41 41 42 41 41 41 41 40 40 39 39 39 38 38 38 39 39 40 39 39 38 37
38 38 38 37 37 37 36 36 36 37 37 37 37 38 39 39 39 39 39 39 39 39 40 39 39 39 38 37 36 36 36 36 36 37 37 38 39 39 39 38 37 36 35
36 36 35 35 35 35 35 34 34 34 34 35 36 36 37 37 37 37 37 37 37 37 36 35 35 34 34 33 33 33 34 34 35 36 37 38 38 38 38 37 35 34 33
33 33 33 33 33 33 32 32 32 32 32 33 33 33 33 34 34 34 34 33 33 33 33 32 32 32 32 32 32 33 33 34 35 35 36 37 37 37 35 34 33 32 31
31 31 31 31 31 31 30 30 30 31 31 31 31 31 30 30 30 31 30 31 31 31 31 31 31 31 31 31 32 33 34 34 34 35 36 36 35 34 33 32 31 29 28
28 28 29 29 29 29 29 29 29 30 30 30 30 30 30 30 29 29 29 30 30 30 31 30 30 30 31 31 32 32 33 34 34 34 35 34 33 32 31 29 28 27 26
26 26 26 27 28 28 28 28 28 28 28 28 28 29 29 29 29 29 30 30 30 30 30 30 30 30 31 31 32 32 32 33 33 33 33 32 31 29 28 26 26 25 25
26 26 26 25 26 26 27 27 27 27 27 27 27 28 28 28 29 29 29 30 30 30 30 30 30 30 31 31 31 31 31 31 31 30 30 28 27 26 25 25 25 24 24
25 25 25 25 25 26 26 26 26 26 26 27 27 27 27 28 28 28 29 29 29 29 29 29 29 29 29 29 29 29 28 28 28 27 26 25 24 24 24 24 23 22 21
24 24 24 25 25 25 25 25 25 25 26 26 26 26 27 27 27 28 28 28 28 28 27 27 27 27 27 27 26 26 26 26 25 24 23 23 22 22 22 22 21 19 18
Wind_Direction
256 258 259 260 262 263 264 266 268 269 270 271 273 274 275 276 278 279 281 283 284 284 285 287 288 288 288 289 290 291 291 292 293 294 294 294 293 293 293 293 293 293 294
257 258 259 260 262 263 264 265 267 269 270 272 273 275 276 277 278 279 281 283 284 285 286 287 288 288 288 289 290 291 292 293 294 294 294 294 294 294 294 294 295 295 295
258 258 259 260 261 263 264 265 266 269 271 272 274 275 276 277 278 279 280 282 283 285 286 287 288 288 289 290 290 291 292 293 294 294 295 295 295 295 296 296 296 296 296
258 259 259 260 261 262 263 265 267 268 271 273 273 275 276 278 279 280 281 283 284 286 287 288 288 288 289 290 290 291 292 294 294 295 295 296 296 297 297 297 297 297 297
258 258 259 259 261 262 263 265 267 269 271 273 274 275 277 278 280 280 282 283 284 285 287 288 289 289 289 290 291 292 293 294 294 295 296 296 297 297 297 298 298 298 298
257 258 258 259 261 262 263 265 266 268 270 272 274 276 277 278 279 281 282 283 284 286 287 288 288 288 289 290 291 292 293 294 295 296 297 297 297 298 298 299 299 299 299
257 258 259 261 262 263 264 265 267 267 269 272 274 276 278 278 279 280 283 284 286 287 287 288 288 288 290 290 291 291 293 294 295 296 297 298 299 299 299 299 300 300 301
258 258 260 261 262 264 265 267 268 268 270 273 274 276 277 278 279 281 283 285 286 286 287 287 288 289 290 290 291 292 293 294 295 296 297 298 299 299 300 300 300 301 302
258 260 261 262 263 264 266 267 269 270 271 273 274 275 277 278 280 281 283 285 285 286 286 287 289 289 289 290 291 292 294 295 295 296 297 298 299 299 300 300 301 301 302
260 261 262 263 264 265 266 268 269 271 272 273 274 275 277 279 280 282 284 285 285 286 286 287 288 289 290 291 292 293 294 295 295 296 297 298 299 300 301 301 302 302 302
262 263 264 264 265 266 268 269 270 271 272 273 274 275 277 279 281 282 284 285 286 286 287 287 288 289 291 293 293 294 295 296 296 296 298 298 299 300 301 301 302 303 303
264 265 265 266 267 269 270 271 271 272 272 274 275 277 279 280 281 283 284 286 287 287 288 288 289 290 292 293 294 295 296 297 297 298 299 300 300 301 301 302 303 304 304
266 267 267 268 269 270 272 272 272 272 273 275 276 278 278 279 280 282 284 286 288 288 289 290 291 292 293 294 294 295 296 297 298 298 300 300 301 302 303 303 303 304 305
267 268 269 270 271 271 272 272 272 273 273 275 277 277 277 277 279 281 284 287 288 289 290 291 293 293 293 294 295 296 297 298 299 299 300 301 302 303 303 303 304 304 305
268 270 271 272 272 272 272 272 272 273 275 275 276 276 275 276 278 280 284 287 288 290 291 292 292 293 293 294 295 296 297 298 299 300 301 302 302 303 304 305 305 304 305
269 271 272 273 273 272 271 271 271 272 273 274 274 274 276 278 280 282 285 287 289 291 292 292 292 293 294 295 295 296 297 298 300 301 302 303 303 305 306 307 307 306 306
271 272 272 272 272 272 271 271 271 271 271 272 272 274 277 280 281 283 285 288 289 290 291 292 293 293 294 295 296 296 297 299 300 302 303 304 305 306 307 307 307 306 306
271 272 272 271 271 271 271 272 272 271 270 270 272 275 278 280 282 284 286 287 288 290 292 292 293 295 295 296 297 298 299 301 302 304 305 305 306 307 307 307 307 307 307
272 272 273 272 272 272 272 273 273 273 272 272 274 276 279 281 283 284 285 287 289 291 292 293 295 296 296 297 298 300 302 303 305 306 306 307 307 307 307 307 307 307 307
272 272 273 272 272 272 271 272 272 272 273 275 276 277 279 281 283 284 286 288 290 292 293 294 295 296 297 298 300 302 303 305 306 306 307 308 308 308 308 308 308 308 307
271 272 273 272 272 272 272 272 272 273 275 277 278 279 280 282 283 284 286 288 291 292 293 294 296 298 298 300 302 303 304 305 305 306 307 309 309 309 309 309 309 308 308
273 274 274 273 272 272 273 273 274 274 275 276 277 279 281 282 282 284 286 289 291 292 294 295 297 298 299 301 303 304 304 305 305 307 308 309 309 309 309 309 309 309 309
274 274 274 273 273 272 272 272 273 274 275 275 277 278 280 280 281 283 286 289 291 292 294 296 297 299 300 301 302 304 305 307 307 308 308 309 309 310 310 311 311 311 310
274 274 274 274 273 272 273 273 274 274 275 277 277 279 280 282 282 285 287 289 291 292 293 295 297 298 300 301 302 304 306 307 308 308 310 311 311 311 311 312 312 313 313
274 274 274 274 274 274 274 274 274 275 276 278 278 279 281 283 284 286 288 290 291 293 294 296 298 299 301 301 302 304 306 308 310 310 311 312 313 313 313 314 315 315 315
274 274 274 274 275 275 274 274 275 276 278 279 280 281 283 285 285 287 288 290 293 294 295 296 298 299 300 301 303 305 307 309 311 312 313 314 315 315 315 316 317 317 317
Height
5700 5702 5703 5704 5705 5706 5706 5707 5707 5708 5707 5707 5707 5706 5705 5704 5702 5700 5698 5696 5694 5691 5688 5685 5682 5679 5675 5671 5667 5663 5658 5653 5650 5649 5645 5641 5636 5631 5627 5622 5618 5614 5610
5689 5691 5692 5693 5694 5695 5695 5696 5696 5696 5696 5696 5695 5694 5693 5692 5690 5688 5687 5684 5682 5679 5676 5673 5670 5666 5662 5658 5654 5649 5645 5640 5636 5634 5632 5627 5622 5618 5613 5609 5604 5599 5595
5678 5680 5681 5682 5683 5684 5684 5684 5685 5685 5685 5684 5684 5683 5681 5680 5678 5676 5674 5672 5669 5666 5663 5660 5657 5653 5649 5645 5640 5636 5632 5628 5623 5620 5617 5614 5609 5604 5599 5595 5590 5585 5580
5667 5669 5670 5671 5672 5672 5673 5673 5674 5674 5673 5673 5672 5671 5669 5668 5666 5664 5662 5659 5657 5654 5651 5647 5644 5640 5636 5632 5628 5624 5620 5616 5611 5607 5603 5600 5596 5591 5585 5581 5577 5572 5566
5657 5658 5659 5660 5660 5661 5662 5662 5662 5662 5662 5661 5660 5659 5657 5655 5653 5652 5650 5647 5645 5642 5638 5634 5630 5626 5622 5619 5615 5612 5608 5603 5599 5594 5591 5587 5582 5577 5572 5567 5562 5558 5553
5646 5647 5648 5649 5649 5650 5650 5651 5651 5651 5651 5650 5649 5647 5645 5643 5641 5639 5637 5635 5632 5629 5625 5622 5618 5614 5610 5607 5603 5599 5595 5591 5586 5582 5578 5573 5569 5563 5558 5553 5548 5544 5541
5635 5636 5637 5637 5638 5639 5639 5639 5639 5639 5639 5638 5637 5635 5634 5632 5629 5627 5625 5622 5619 5616 5612 5609 5606 5602 5598 5595 5592 5588 5583 5578 5573 5569 5564 5560 5555 5551 5546 5541 5535 5530 5525
5623 5624 5625 5626 5627 5627 5627 5628 5628 5627 5627 5626 5625 5623 5622 5620 5617 5615 5613 5610 5607 5603 5600 5597 5593 5590 5586 5583 5579 5576 5571 5566 5561 5556 5551 5547 5542 5537 5532 5527 5522 5518 5512
5613 5613 5614 5615 5615 5616 5616 5616 5616 5615 5615 5614 5612 5611 5609 5608 5605 5603 5600 5597 5594 5591 5588 5585 5581 5578 5574 5570 5566 5563 5559 5553 5548 5543 5538 5533 5529 5524 5519 5514 5509 5504 5500
5602 5603 5603 5604 5604 5604 5604 5604 5604 5603 5602 5601 5600 5599 5597 5595 5593 5590 5587 5584 5582 5579 5576 5572 5569 5565 5561 5557 5553 5549 5546 5541 5536 5531 5527 5521 5516 5511 5506 5501 5496 5490 5486
5592 5592 5592 5592 5592 5592 5592 5592 5592 5591 5590 5589 5588 5587 5585 5583 5580 5577 5574 5572 5569 5567 5564 5560 5557 5553 5549 5545 5541 5537 5532 5528 5524 5520 5515 5510 5505 5500 5494 5488 5483 5477 5473
5581 5581 5581 5581 5580 5580 5580 5580 5579 5579 5578 5577 5576 5575 5573 5570 5568 5565 5562 5560 5557 5554 5551 5548 5545 5541 5538 5533 5529 5525 5520 5516 5512 5508 5504 5499 5493 5488 5483 5477 5471 5465 5460
5569 5569 5569 5568 5568 5568 5568 5568 5567 5566 5566 5565 5564 5563 5561 5558 5556 5553 5551 5548 5545 5543 5540 5537 5533 5530 5526 5522 5518 5513 5509 5505 5501 5497 5492 5487 5482 5477 5471 5466 5460 5455 5449
5558 5557 5557 5556 5556 5555 5555 5554 5554 5554 5553 5553 5552 5550 5549 5546 5544 5542 5540 5537 5535 5532 5529 5526 5522 5518 5514 5510 5506 5502 5498 5493 5489 5485 5480 5475 5470 5465 5460 5455 5450 5446 5441
5546 5546 5545 5544 5544 5543 5543 5542 5542 5542 5541 5540 5540 5538 5537 5536 5534 5532 5529 5527 5524 5521 5518 5515 5511 5508 5503 5499 5495 5491 5487 5482 5478 5473 5469 5465 5460 5455 5450 5445 5440 5435 5431
5535 5534 5534 5533 5532 5532 5531 5531 5530 5530 5529 5528 5528 5527 5526 5525 5523 5521 5519 5516 5513 5510 5507 5504 5500 5496 5492 5488 5484 5480 5476 5471 5467 5463 5459 5454 5450 5445 5440 5435 5430 5426 5421
5523 5523 5522 5522 5521 5521 5520 5520 5519 5519 5518 5518 5517 5516 5515 5514 5512 5510 5508 5505 5502 5499 5496 5492 5489 5485 5481 5477 5473 5469 5466 5462 5458 5453 5449 5445 5441 5436 5431 5426 5422 5417 5413
5512 5512 5511 5511 5510 5510 5509 5509 5508 5508 5508 5507 5506 5505 5504 5503 5501 5499 5496 5494 5491 5488 5485 5481 5478 5474 5471 5467 5464 5460 5456 5453 5449 5445 5440 5436 5432 5427 5422 5418 5413 5409 5404
5502 5501 5501 5500 5500 5500 5499 5499 5498 5498 5497 5497 5496 5495 5494 5492 5490 5488 5486 5484 5481 5478 5475 5472 5468 5465 5461 5458 5455 5452 5448 5444 5440 5436 5432 5427 5423 5418 5414 5409 5405 5400 5396
5492 5491 5491 5491 5490 5490 5490 5489 5489 5488 5487 5487 5486 5485 5484 5482 5480 5478 5476 5474 5471 5469 5466 5463 5460 5456 5453 5450 5447 5444 5440 5436 5432 5428 5424 5419 5414 5410 5405 5401 5397 5393 5389
5482 5482 5481 5481 5481 5481 5480 5480 5479 5479 5478 5478 5477 5476 5474 5473 5471 5470 5468 5465 5463 5460 5457 5455 5452 5449 5446 5443 5439 5436 5432 5428 5424 5420 5416 5411 5406 5402 5398 5394 5390 5386 5382
5473 5473 5472 5472 5472 5472 5471 5471 5471 5470 5470 5469 5468 5467 5465 5464 5462 5461 5459 5457 5454 5452 5449 5447 5444 5441 5438 5435 5431 5428 5424 5420 5416 5412 5408 5403 5399 5395 5390 5387 5383 5379 5376
5465 5465 5464 5464 5463 5463 5463 5462 5462 5461 5461 5460 5459 5458 5456 5455 5454 5452 5450 5448 5446 5444 5441 5439 5436 5433 5430 5427 5424 5420 5417 5413 5409 5404 5400 5396 5392 5388 5384 5380 5377 5373 5370
5457 5457 5456 5456 5455 5455 5454 5454 5453 5453 5452 5451 5450 5449 5448 5446 5445 5443 5442 5440 5438 5435 5433 5431 5428 5425 5422 5419 5416 5413 5409 5405 5401 5397 5393 5390 5386 5382 5378 5375 5371 5368 5364
5449 5449 5448 5448 5448 5447 5446 5446 5445 5445 5444 5443 5442 5441 5439 5438 5437 5435 5434 5432 5430 5427 5425 5423 5420 5417 5415 5412 5409 5405 5402 5398 5395 5391 5387 5384 5380 5377 5373 5370 5366 5363 5359
5441 5441 5440 5440 5440 5439 5438 5438 5437 5436 5436 5435 5434 5433 5431 5430 5429 5427 5425 5424 5422 5419 5417 5415 5412 5410 5407 5404 5402 5399 5395 5392 5389 5385 5382 5379 5376 5372 5369 5365 5362 5359 5355